{"data":{"norad_id":27868,"intl_designator":"2003-037A","name":"COSMOS 2400","alt_names":[],"object_type":"PAYLOAD","status":"ACTIVE","operator":null,"country":"CIS","launch_date":"2003-08-19","launch_site_code":"PLMSC","launch_vehicle":null,"mission":null,"orbit_class":"UNKNOWN","rcs_meters":0.9004,"size_class":null,"mass_kg":null,"dimensions":null,"purposes":[],"wikipedia_slug":null,"has_3d_model":false,"image_url":null,"decayed_at":null,"tle_current":{"epoch":"2026-09-19T22:55:29.568576Z","epoch_age_seconds":61614,"freshness":"FRESH","line1":"1 27868U 03037A   26262.95520334  .00000082  00000+0  50172-3 0  9990","line2":"2 27868  82.4659 270.4221 0020874 205.2561 154.7501 12.45191635 49336","mean_motion":12.45191635,"eccentricity":0.0020874,"inclination_deg":82.4659,"raan_deg":270.4221,"arg_perigee_deg":205.2561,"mean_anomaly_deg":154.7501,"bstar":0.00050172,"rev_number":4933,"period_min":115.6448501198,"perigee_km":1468.2589115851,"apogee_km":1501.0845655068,"semimajor_km":7862.808738546,"source":"CELESTRAK","updated_at":"2026-09-20T09:00:13.590435Z"}}}